{"data":{"norad_id":43687,"intl_designator":"2018-086A","name":"COSMOS 2529 (757)","alt_names":[],"object_type":"PAYLOAD","status":"ACTIVE","operator":null,"country":"CIS","launch_date":"2018-11-03","launch_site_code":"PLMSC","launch_vehicle":null,"mission":null,"orbit_class":"UNKNOWN","rcs_meters":null,"size_class":null,"mass_kg":null,"dimensions":null,"purposes":["nav"],"wikipedia_slug":null,"has_3d_model":false,"image_url":null,"decayed_at":null,"tle_current":{"epoch":"2026-09-19T23:18:56.685888Z","epoch_age_seconds":60109,"freshness":"FRESH","line1":"1 43687U 18086A   26262.97148942 -.00000012  00000+0  00000+0 0  9995","line2":"2 43687  64.2958 189.3960 0010258 254.5016 105.3970  2.13102042 61309","mean_motion":2.13102042,"eccentricity":0.0010258,"inclination_deg":64.2958,"raan_deg":189.396,"arg_perigee_deg":254.5016,"mean_anomaly_deg":105.397,"bstar":0,"rev_number":6130,"period_min":675.73261451901,"perigee_km":19103.717947949,"apogee_km":19156.050203989,"semimajor_km":25508.021075969,"source":"CELESTRAK","updated_at":"2026-09-20T09:00:46.277656Z"}}}